[[{"header":{"parameterUnit":"m.s-1","parameterCategory":1,"la1":30.2991,"la2":30.254,"lo1":-89.0895,"lo2":-89.0444,"dy":0.0017,"dx":0.0017,"nx":28,"ny":28,"refTime":"2026-02-16T09:00:00:Z","depth":0,"parameterNumber":2,"parameterNumberName":"U-component_of_WINDS"},"data":[0,0,0,0,0,0,0,0,0,0,0,0,0,0,0,0,0,0,0,0,0,0,0,0,0,0,0,0,0,0,0,0,0,0,0,0,0,0,0,0,0,0,0,0,0,0,0,0,0,0,0,0,0,0,0,0,0,0,-1.0863,-1.0863,0,-1.0847,-1.0847,-1.0847,-1.0813,-1.0813,-1.0812,-1.0811,-1.0797,-1.0797,-1.0798,0,0,0,0,0,0,0,0,0,0,0,0,0,-1.087,-1.087,-1.0863,-1.0863,-1.0863,-1.0847,-1.0847,-1.0847,-1.0813,-1.0812,-1.0812,-1.0811,-1.0797,-1.0797,-1.0798,0,0,0,0,0,0,0,0,0,0,0,0,0,-1.0862,-1.087,-1.0863,-1.0844,-1.0842,-1.0847,-1.0847,-1.0847,-1.0813,-1.0812,-1.0811,-1.081,-1.0797,-1.0797,-1.0798,-1.0821,0,0,-1.0799,-1.0799,0,0,0,0,0,0,0,0,-1.0862,-1.0861,-1.0847,-1.0845,-1.0843,-1.0831,-1.0844,-1.0838,-1.0814,-1.0824,-1.0811,-1.081,-1.0809,-1.0809,-1.0808,-1.082,-1.0819,-1.0799,-1.0799,-1.0799,-1.0799,0,0,0,0,0,0,0,-1.0863,-1.0862,-1.0857,-1.0847,-1.0845,-1.0838,-1.0836,-1.0843,-1.0823,-1.0823,-1.0821,-1.0819,-1.0808,-1.0808,-1.0807,-1.0819,-1.0799,-1.0799,-1.0799,-1.08,-1.0854,-1.0855,0,0,0,0,0,0,-1.0866,-1.0863,-1.0857,-1.0856,-1.085,-1.0839,-1.0836,-1.0836,-1.0823,-1.082,-1.082,-1.0818,-1.0808,-1.0807,-1.0807,-1.0836,-1.0799,-1.08,-1.08,-1.0853,-1.0854,-1.0856,0,0,0,0,0,0,-1.0866,-1.0865,-1.0858,-1.0859,-1.0857,-1.084,-1.084,-1.0836,-1.0836,-1.082,-1.0817,-1.0823,-1.0807,-1.0806,-1.0818,-1.0835,-1.08,-1.08,-1.0852,-1.0853,-1.0855,-1.0893,0,0,0,0,0,0,-1.0866,-1.0866,-1.0873,-1.0859,-1.0857,-1.0868,-1.0841,-1.0837,-1.0836,-1.0833,-1.0822,-1.0819,-1.0806,-1.0818,-1.0819,-1.0835,-1.08,-1.085,-1.0852,-1.0854,-1.089,-1.0896,-1.0901,0,0,0,0,0,-1.0866,-1.0883,-1.0873,-1.0873,-1.0866,-1.0869,-1.0868,-1.0852,-1.0838,-1.0846,-1.0837,-1.082,-1.0833,-1.0819,-1.082,-1.0837,-1.0849,-1.0852,-1.0854,-1.0888,-1.0895,-1.09,0,0,0,0,0,0,-1.0899,-1.0881,-1.0869,-1.0882,-1.0878,-1.0863,-1.0873,-1.0859,-1.0859,-1.0856,-1.0836,-1.0834,-1.085,-1.0844,-1.0829,-1.0861,-1.0838,-1.0841,-1.0864,-1.087,-1.0875,-1.0877,-1.0801,0,0,0,0,0,-1.0907,-1.091,-1.0895,-1.0908,-1.0906,-1.089,-1.0891,-1.0879,-1.0874,-1.0872,-1.0863,-1.086,-1.0864,-1.0866,-1.0868,-1.0889,-1.0888,-1.0901,-1.0906,-1.0911,-1.0914,-1.0929,-1.0936,-1.0865,-1.0865,-1.0865,0,0,-1.0925,-1.0916,-1.0919,-1.0914,-1.0909,-1.0915,-1.0889,-1.0895,-1.09,-1.0873,-1.0884,-1.0879,-1.0874,-1.0891,-1.0898,-1.0887,-1.0934,-1.0914,-1.0918,-1.0919,-1.0933,-1.0939,-1.0945,-1.0867,-1.0866,-1.0866,0,0,-1.0961,-1.0953,-1.0965,-1.0961,-1.0954,-1.0944,-1.0947,-1.0936,-1.0931,-1.0942,-1.0924,-1.093,-1.0935,-1.0934,-1.0934,-1.0974,-1.096,-1.0976,-1.1004,-1.1019,-1.1024,-1.1029,-1.1047,-1.1053,-1.0979,-1.0979,-1.0979,0,-1.0984,-1.0991,-1.0972,-1.0981,-1.0982,-1.0958,-1.0972,-1.0969,-1.0963,-1.0965,-1.0952,-1.0962,-1.0957,-1.0976,-1.0986,-1.0986,-1.0991,-1.0977,-1.1025,-1.1029,-1.1034,-1.1051,-1.1057,-1.0981,-1.0981,-1.098,-1.098,0,-1.1022,-1.1027,-1.1038,-1.1034,-1.1035,-1.1046,-1.1032,-1.1036,-1.1025,-1.1017,-1.1032,-1.1025,-1.1027,-1.1031,-1.1019,-1.105,-1.1043,-1.1028,-1.1006,-1.1043,-1.1059,-1.1065,-1.0984,-1.0983,-1.0983,-1.0982,0,0,-1.1075,-1.1064,-1.1069,-1.1069,-1.1061,-1.1066,-1.1078,-1.108,-1.1086,-1.1084,-1.1096,-1.1103,-1.109,-1.109,-1.1079,-1.1091,-1.1129,-1.1075,-1.1075,-1.1088,-1.1167,-1.1181,-1.1188,-1.1119,-1.112,-1.1121,-1.1168,0,-1.1111,-1.113,-1.1116,-1.1138,-1.1145,-1.1125,-1.1136,-1.1134,-1.1128,-1.1135,-1.1128,-1.1135,-1.1115,-1.1116,-1.1128,-1.1122,-1.1145,-1.1118,-1.1133,-1.1133,-1.1137,-1.1196,-1.1209,-1.1254,-1.1174,-1.1175,-1.1176,0,-1.1155,-1.1157,-1.118,-1.1175,-1.1177,-1.1187,-1.1191,-1.1197,-1.1196,-1.1191,-1.1193,-1.118,-1.1194,-1.1172,-1.1193,-1.1175,-1.1181,-1.1179,-1.1181,-1.1183,-1.1158,-1.1203,-1.1267,-1.1276,-1.1185,-1.1184,-1.1183,0,-1.1196,-1.1204,-1.122,-1.122,-1.1214,-1.1222,-1.122,-1.1218,-1.1222,-1.1226,-1.1229,-1.1234,-1.1238,-1.1244,-1.1234,-1.1217,-1.1258,-1.1233,-1.1257,-1.1258,-1.1267,-1.1267,-1.1337,-1.1267,-1.1267,-1.1266,-1.1266,0,-1.1239,-1.1255,-1.1239,-1.1249,-1.1267,-1.1252,-1.1272,-1.1268,-1.1267,-1.1278,-1.126,-1.1271,-1.1256,-1.1267,-1.1259,-1.128,-1.1281,-1.128,-1.1278,-1.1283,-1.1283,-1.1287,-1.1285,-1.1268,-1.1268,-1.1267,-1.1267,0,-1.1288,-1.1277,-1.1294,-1.1288,-1.1287,-1.1302,-1.1298,-1.1308,-1.1302,-1.1317,-1.1319,-1.131,-1.1322,-1.1312,-1.1323,-1.1318,-1.1348,-1.134,-1.1348,-1.1347,-1.1373,-1.1372,-1.145,-1.1461,-1.1381,-1.1381,-1.1382,0,-1.1316,-1.1328,-1.1325,-1.1331,-1.1331,-1.134,-1.1345,-1.1332,-1.1338,-1.1341,-1.1352,-1.1363,-1.137,-1.1391,-1.1387,-1.1396,-1.1391,-1.1417,-1.1392,-1.1398,-1.1395,-1.1396,-1.1399,-1.1423,-1.1424,-1.1425,-1.1425,0,-1.137,-1.1365,-1.1372,-1.138,-1.1386,-1.1391,-1.1394,-1.1401,-1.1388,-1.1396,-1.1409,-1.1415,-1.1428,-1.144,-1.1449,-1.1449,-1.1437,-1.1433,-1.144,-1.1446,-1.1452,-1.1453,-1.1366,-1.1432,-1.1431,-1.1431,-1.143,-1.143,-1.1412,-1.1423,-1.1424,-1.1434,-1.1436,-1.144,-1.1452,-1.1448,-1.1458,-1.1468,-1.146,-1.1476,-1.1479,-1.149,-1.1492,-1.1506,-1.1495,-1.1504,-1.1507,-1.151,-1.1515,-1.1448,-1.1507,-1.1507,-1.1507,-1.1507,-1.1507,0,-1.1467,-1.1467,-1.1477,-1.1483,-1.1493,-1.148,-1.1484,-1.1493,-1.1507,-1.1511,-1.152,-1.1537,-1.155,-1.1548,-1.156,-1.1572,-1.1567,-1.1576,-1.1577,-1.1578,-1.1522,-1.1517,-1.158,-1.158,-1.158,-1.158,-1.158,-1.158,-1.1497,-1.1517,-1.1514,-1.1536,-1.1537,-1.1552,-1.1557,-1.1563,-1.1566,-1.1586,-1.1597,-1.1595,-1.1598,-1.1611,-1.1624,-1.1623,-1.163,-1.1642,-1.164,-1.1588,-1.1581,-1.1574,-1.1569,-1.1643,-1.1643,-1.1695,-1.1695,-1.1696]},{"header":{"parameterUnit":"m.s-1","parameterCategory":1,"la1":30.2991,"la2":30.254,"lo1":-89.0895,"lo2":-89.0444,"dy":0.0017,"dx":0.0017,"nx":28,"ny":28,"refTime":"2026-02-16T09:00:00:Z","depth":0,"parameterNumber":3,"parameterNumberName":"V-component_of_WINDS"},"data":[0,0,0,0,0,0,0,0,0,0,0,0,0,0,0,0,0,0,0,0,0,0,0,0,0,0,0,0,0,0,0,0,0,0,0,0,0,0,0,0,0,0,0,0,0,0,0,0,0,0,0,0,0,0,0,0,0,0,0.8024,0.8022,0,0.7839,0.7837,0.7834,0.778,0.7781,0.7782,0.7783,0.7583,0.7577,0.7571,0,0,0,0,0,0,0,0,0,0,0,0,0,0.8321,0.8316,0.8024,0.8022,0.802,0.7839,0.7836,0.7834,0.778,0.7781,0.7782,0.7783,0.7585,0.7578,0.757,0,0,0,0,0,0,0,0,0,0,0,0,0,0.8169,0.8314,0.8025,0.7971,0.7965,0.784,0.7836,0.7833,0.7779,0.7781,0.7782,0.7784,0.7587,0.7578,0.7569,0.7481,0,0,0.754,0.7536,0,0,0,0,0,0,0,0,0.8178,0.8158,0.7981,0.7975,0.7967,0.7834,0.7868,0.7715,0.7779,0.7849,0.7783,0.7784,0.7665,0.7649,0.7611,0.7472,0.7463,0.754,0.7534,0.753,0.7527,0,0,0,0,0,0,0,0.8189,0.8166,0.7951,0.7979,0.797,0.7953,0.7933,0.7838,0.775,0.7843,0.7839,0.7818,0.7661,0.762,0.7605,0.746,0.754,0.7531,0.7526,0.7522,0.7235,0.7233,0,0,0,0,0,0,0.821,0.8175,0.7957,0.7945,0.8079,0.7946,0.7924,0.7875,0.7751,0.7734,0.7817,0.7816,0.7635,0.7616,0.7598,0.7484,0.753,0.7521,0.7516,0.7237,0.7235,0.7232,0,0,0,0,0,0,0.8216,0.8191,0.7964,0.8059,0.8029,0.794,0.7885,0.7871,0.7829,0.7732,0.7715,0.7792,0.7635,0.7611,0.751,0.7476,0.7517,0.7508,0.7239,0.7236,0.7233,0.7256,0,0,0,0,0,0,0.8225,0.8194,0.8162,0.8059,0.8024,0.7883,0.7883,0.7866,0.7815,0.7812,0.7704,0.7687,0.7635,0.7525,0.7501,0.7464,0.7501,0.7242,0.7238,0.7234,0.7258,0.7255,0.7251,0,0,0,0,0,0.8236,0.8175,0.8161,0.8135,0.7983,0.7881,0.7861,0.7805,0.7812,0.7777,0.7714,0.769,0.7485,0.7515,0.7488,0.7447,0.7244,0.7239,0.7235,0.726,0.7255,0.7252,0,0,0,0,0,0,0.8273,0.816,0.8143,0.8048,0.7975,0.7872,0.7827,0.7802,0.7723,0.7723,0.7654,0.763,0.7533,0.748,0.7516,0.7353,0.7363,0.7353,0.7391,0.7386,0.7383,0.7396,0.7493,0,0,0,0,0,0.8271,0.8201,0.8105,0.8029,0.7994,0.7917,0.787,0.7833,0.7753,0.7721,0.7651,0.7571,0.7488,0.7435,0.7353,0.7251,0.7224,0.721,0.7206,0.7204,0.7195,0.7132,0.7124,0.7218,0.7218,0.7218,0,0,0.8264,0.8194,0.8153,0.8035,0.7974,0.7898,0.7891,0.7813,0.7754,0.7708,0.7608,0.7554,0.746,0.7357,0.7308,0.731,0.7163,0.7198,0.7197,0.7189,0.7127,0.7118,0.711,0.7215,0.7215,0.7216,0,0,0.8213,0.8155,0.8084,0.8023,0.7932,0.7881,0.7864,0.7765,0.7727,0.7627,0.7589,0.7518,0.7377,0.7311,0.7259,0.7181,0.7154,0.7156,0.7137,0.7077,0.7069,0.7062,0.703,0.702,0.7148,0.7148,0.7148,0,0.8216,0.8104,0.805,0.7973,0.792,0.7877,0.7802,0.7745,0.763,0.7592,0.7598,0.7418,0.7353,0.7232,0.7213,0.7173,0.7148,0.7167,0.7076,0.7068,0.706,0.7029,0.7017,0.7149,0.7149,0.7148,0.7148,0,0.8109,0.8032,0.7985,0.7878,0.782,0.7744,0.7675,0.7622,0.759,0.7537,0.7432,0.7352,0.7252,0.7221,0.7188,0.7094,0.7097,0.709,0.7097,0.7053,0.7022,0.701,0.7149,0.7149,0.7149,0.7149,0,0,0.8076,0.7939,0.7923,0.7872,0.7767,0.7704,0.7625,0.753,0.7483,0.7405,0.7334,0.7215,0.7207,0.7148,0.7107,0.7055,0.6993,0.7053,0.705,0.7041,0.6878,0.6882,0.6869,0.6976,0.6974,0.6972,0.6885,0,0.8008,0.7868,0.7816,0.7699,0.7624,0.7582,0.7512,0.7438,0.7386,0.7312,0.7254,0.717,0.7168,0.7131,0.7078,0.7012,0.6959,0.7018,0.6904,0.69,0.6925,0.6854,0.6858,0.678,0.6873,0.6871,0.6869,0,0.7911,0.7834,0.7711,0.7612,0.7579,0.7517,0.7424,0.7356,0.7269,0.7234,0.7168,0.713,0.7041,0.7057,0.6929,0.6971,0.6921,0.6881,0.6877,0.6861,0.688,0.6832,0.6754,0.6741,0.685,0.6852,0.6853,0,0.7894,0.7759,0.7667,0.7625,0.7509,0.7466,0.7415,0.7331,0.7276,0.7193,0.7155,0.7063,0.7011,0.6938,0.6874,0.6893,0.6751,0.6763,0.6716,0.6717,0.6685,0.6687,0.6594,0.666,0.666,0.666,0.6661,0,0.7822,0.7747,0.7657,0.76,0.7513,0.7452,0.7367,0.7313,0.7237,0.7165,0.7123,0.7056,0.6978,0.6899,0.6849,0.6749,0.6727,0.6693,0.6679,0.6694,0.6698,0.6658,0.666,0.6657,0.6658,0.6659,0.6659,0,0.7787,0.7725,0.7621,0.752,0.7493,0.7432,0.7344,0.7284,0.7231,0.714,0.7115,0.703,0.6935,0.6866,0.6742,0.6708,0.6599,0.6588,0.6629,0.6622,0.6577,0.6581,0.6452,0.643,0.6515,0.6514,0.6513,0,0.7744,0.7685,0.7578,0.7529,0.7479,0.7399,0.7343,0.728,0.7222,0.7118,0.7069,0.6973,0.6891,0.6741,0.6665,0.6569,0.6552,0.6514,0.6537,0.6553,0.6546,0.6549,0.6541,0.6509,0.6509,0.6508,0.6508,0,0.7672,0.7644,0.7566,0.7477,0.7411,0.7337,0.7262,0.7222,0.7145,0.7082,0.6986,0.6923,0.6797,0.6699,0.6596,0.6539,0.6508,0.6502,0.6485,0.6497,0.6522,0.6503,0.6616,0.6504,0.6504,0.6505,0.6505,0.6505,0.7628,0.7573,0.7489,0.7402,0.7339,0.7269,0.7208,0.7147,0.7067,0.6961,0.6928,0.6827,0.6738,0.6597,0.6538,0.6455,0.6456,0.6433,0.6426,0.642,0.6419,0.6539,0.6437,0.6437,0.6437,0.6437,0.6437,0,0.7551,0.7494,0.7416,0.7313,0.7243,0.7225,0.714,0.7082,0.6995,0.6916,0.6837,0.6724,0.6628,0.6546,0.6445,0.6394,0.6377,0.6369,0.637,0.6357,0.6426,0.6449,0.6385,0.6385,0.6385,0.6385,0.6385,0.6385,0.7502,0.7406,0.7367,0.7237,0.718,0.7083,0.7036,0.6969,0.6906,0.6782,0.6704,0.6651,0.6569,0.6462,0.6372,0.6349,0.6312,0.6307,0.628,0.6346,0.6352,0.6358,0.6379,0.63,0.63,0.6217,0.6216,0.6215]}]]